Regional Weather Roundup
Issued by NWS

Home | Current Version | Previous Version | Graphics & Text | Print | Product List | Glossary On
Versions: 1 2 3 4 5 6 7 8 9 10 11 12 13 14 15 16 17 18 19 20 21 22 23 24 25 26 27 28 29 30 31 32 33 34 35 36 37 38 39 40 41 42 43 44 45 46 47 48 49 50
000
ASUS43 KDTX 261610
RWRMI
MICHIGAN HOURLY REGIONAL WEATHER ROUNDUP
NATIONAL WEATHER SERVICE DETROIT/PONTIAC MI
1200 PM EDT FRI MAY 26 2017

NOTE: "FAIR" INDICATES FEW OR NO CLOUDS BELOW 12,000 FEET WITH NO
SIGNIFICANT WEATHER AND/OR OBSTRUCTION TO VISIBILITY.

MIZ047>049-052>055-059>063-066>070-074>076-081>083-261700-
SOUTHEAST LOWER MICHIGAN

CITY           SKY/WX    TMP DP  RH WIND       PRES   REMARKS
ADRIAN         PTSUNNY   63  53  70 NW9       29.87S
ALMA           CLOUDY    63  53  70 NW6       29.86R
ANN ARBOR      CLOUDY    62  53  72 W8        29.86R
BAD AXE        CLOUDY    57  55  94 NW8       29.84R
CARO           CLOUDY    60  56  88 NW7       29.84R
DETROIT CITY   CLOUDY    61  53  75 W6        29.85R
DETROIT        CLOUDY    62  53  72 W10       29.86R
FLINT          CLOUDY    62  52  69 NW9       29.85R
GROSSE ILE     CLOUDY    60  52  75 W6        29.86R
HILLSDALE      PTSUNNY   63  52  67 W5        29.87S
HOWELL         CLOUDY    62  50  66 W6        29.86R

CITY           SKY/WX    TMP DP  RH WIND       PRES   REMARKS
JACKSON        PTSUNNY   63  53  70 VRB3      29.86S
LAMBERTVILLE   CLOUDY    62  53  70 CALM      29.87S
LANSING        PTSUNNY   63  51  65 NW7       29.87R
LAPEER         CLOUDY    58  55  87 W8        29.84R
MASON          CLOUDY    62  53  73 CALM      29.86S
MONROE         CLOUDY    63  53  71 W7        29.86S
MT. CLEMENS    CLOUDY    62  58  85 W13       29.83R
PONTIAC        CLOUDY    60  52  74 NW12      29.84R
PORT HOPE        N/A     55  54  96 NW10      29.81R
PORT HURON     CLOUDY    59  54  82 NW6       29.83R
TRI CITIES     CLOUDY    64  54  69 NW9       29.85R
MIDLAND        CLOUDY    63  52  67 NW3       29.84R
TROY           CLOUDY    61  52  70 NW9       29.87R
SAGINAW HB     CLOUDY    61  52  72 NW7       29.84R
$$
MIZ043>046-050>051-056>058-064>065-071>073-077>080-261700-
SOUTHWEST LOWER MICHIGAN

CITY           SKY/WX    TMP DP  RH WIND       PRES   REMARKS
BATTLE CREEK   MOSUNNY   62  55  77 NW5       29.89R
BENTON HARBOR  SUNNY     64  52  64 SW6       29.88S
BIG RAPIDS     PTSUNNY   65  49  56 CALM      29.84F
COLDWATER      CLOUDY    62  56  82 W3        29.89R
FREMONT        FAIR      64  51  61 CALM      29.85S
HOLLAND        CLOUDY    64  55  72 SW6       29.89R
GRAND RAPIDS   PTSUNNY   64  55  72 SW6       29.86S
IONIA          PTSUNNY   63  52  67 CALM      29.86R
KALAMAZOO      MOSUNNY   64  52  64 CALM      29.89R
LUDINGTON      MOSUNNY   59  53  81 W3        29.86S
MARSHALL       CLOUDY    62  55  76 W5        29.88R
MOUNT PLEASANT CLOUDY    63  52  66 NW5       29.84S
MUSKEGON       CLOUDY    63  53  70 S7        29.87R
SOUTH HAVEN    SUNNY     62  55  76 W7        29.89S
$$
MIZ016>042-261700-
NORTHERN LOWER MICHIGAN

CITY           SKY/WX    TMP DP  RH WIND       PRES   REMARKS
ALPENA         CLOUDY    61  54  77 N7        29.83R
BEAVER ISLAND  MOSUNNY   64  54  70 NW6       29.84S
BELLAIRE       CLOUDY    63  52  67 W6        29.84S
CADILLAC       CLOUDY    62  51  69 N3        29.85S
CHARLEVOIX     SUNNY     59  52  78 W7        29.88R
FRANKFORT      PTSUNNY   63  52  66 W8        29.86R
GAYLORD        PTSUNNY   63  50  62 VRB5      29.84R
GRAYLING       CLOUDY    62  51  67 NW7       29.85R
HARBOR SPRINGS PTSUNNY   50  47  88 SW6       29.84S
HOUGHTON LAKE  CLOUDY    64  51  62 N9        29.85R
MANISTEE       MOSUNNY   66  54  65 N8        29.85S
OSCODA         CLOUDY    60  56  85 NW8G17    29.82R
PELLSTON       MOSUNNY   65  50  58 NE7       29.83S
ROGERS CITY    MOSUNNY   61  54  78 N7        29.84R
TRAVERSE CITY  MOSUNNY   64  52  64 N6        29.84R
$$
MIZ007>008-015-261700-
EASTERN UPPER MICHIGAN

CITY           SKY/WX    TMP DP  RH WIND       PRES   REMARKS
KINROSS        MOSUNNY   64  51  62 N3        29.82F
MACKINAC ISLAN SUNNY     65  53  65 CALM      29.82S
NEWBERRY       SUNNY     66  52  61 NE5       29.82F
S. S. MARIE    CLOUDY    62  53  72 W10       29.81S
MUNISING         N/A     54  48  80 N3        29.83R
$$
MIZ004>006-011>014-085-261700-
CENTRAL UPPER MICHIGAN

CITY           SKY/WX    TMP DP  RH WIND       PRES   REMARKS
MANISTIQUE     MOSUNNY   65  51  59 S9        29.83R
ESCANABA       CLOUDY    60  52  74 S6        29.85R
MENOMINEE      CLOUDY    64  54  69 SE8       29.85F
SAWYER-GWINN   SUNNY     64  50  59 SW7       29.84R
$$
MIZ001>003-009>011-084-261700-
WESTERN UPPER MICHIGAN

CITY           SKY/WX    TMP DP  RH WIND       PRES   REMARKS
IRON MOUNTAIN  MOSUNNY   63  51  65 S5        29.82F
HOUGHTON       CLOUDY    61  50  67 S8        29.80F
COPPER HARBOR    N/A     66  49  54 VRB7      29.80S
IRONWOOD       CLOUDY    67  54  63 S8        29.78F
$$

ABBREVIATIONS USED IN REMARKS
   TC - TEMPERATURE IN CELSIUS
  WCI - WIND CHILL INDEX
   HX - HEAT INDEX
  VSB - VISIBILITY




USA.gov is the U.S. government's official web portal to all federal, state and local government web resources and services.